Year,Month,Day,Hour,Minute,Value (Times are PST for temperature in C)
2017,05,04,00,00,13.90
2017,05,04,00,01,13.90
2017,05,04,00,02,13.90
2017,05,04,00,03,13.90
2017,05,04,00,04,13.90
2017,05,04,00,05,13.90
2017,05,04,00,06,13.90
2017,05,04,00,07,13.90
2017,05,04,00,08,13.90
2017,05,04,00,09,13.90
2017,05,04,00,10,13.90
2017,05,04,00,11,13.80
2017,05,04,00,12,13.80
2017,05,04,00,13,13.80
2017,05,04,00,14,13.80
2017,05,04,00,15,13.80
2017,05,04,00,16,13.80
2017,05,04,00,17,13.80
2017,05,04,00,18,13.80
2017,05,04,00,19,13.80
2017,05,04,00,20,13.70
2017,05,04,00,21,13.70
2017,05,04,00,22,13.70
2017,05,04,00,23,13.70
2017,05,04,00,24,13.70
2017,05,04,00,25,13.70
2017,05,04,00,26,13.70
2017,05,04,00,27,13.60
2017,05,04,00,28,13.60
2017,05,04,00,29,13.60
2017,05,04,00,30,13.60
2017,05,04,00,31,13.60
2017,05,04,00,32,13.60
2017,05,04,00,33,13.50
2017,05,04,00,34,13.50
2017,05,04,00,35,13.50
2017,05,04,00,36,13.50
2017,05,04,00,37,13.40
2017,05,04,00,38,13.40
2017,05,04,00,39,13.40
2017,05,04,00,40,13.40
2017,05,04,00,41,13.40
2017,05,04,00,42,13.40
2017,05,04,00,43,13.30
2017,05,04,00,44,13.30
2017,05,04,00,45,13.30
2017,05,04,00,46,13.30
2017,05,04,00,47,13.30
2017,05,04,00,48,13.30
2017,05,04,00,49,13.30
2017,05,04,00,50,13.30
2017,05,04,00,51,13.30
2017,05,04,00,52,13.30
2017,05,04,00,53,13.30
2017,05,04,00,54,13.30
2017,05,04,00,55,13.30
2017,05,04,00,56,13.30
2017,05,04,00,57,13.30
2017,05,04,00,58,13.30
2017,05,04,00,59,13.30
2017,05,04,01,00,13.20
2017,05,04,01,01,13.20
2017,05,04,01,02,13.20
2017,05,04,01,03,13.20
2017,05,04,01,04,13.20
2017,05,04,01,05,13.20
2017,05,04,01,06,13.10
2017,05,04,01,07,13.10
2017,05,04,01,08,13.10
2017,05,04,01,09,13.10
2017,05,04,01,10,13.10
2017,05,04,01,11,13.10
2017,05,04,01,12,13.00
2017,05,04,01,13,13.00
2017,05,04,01,14,13.00
2017,05,04,01,15,13.00
2017,05,04,01,16,13.00
2017,05,04,01,17,13.00
2017,05,04,01,18,13.00
2017,05,04,01,19,13.00
2017,05,04,01,20,13.00
2017,05,04,01,21,13.00
2017,05,04,01,22,13.00
2017,05,04,01,23,13.00
2017,05,04,01,24,13.00
2017,05,04,01,25,13.00
2017,05,04,01,26,13.00
2017,05,04,01,27,13.00
2017,05,04,01,28,13.00
2017,05,04,01,29,13.00
2017,05,04,01,30,13.00
2017,05,04,01,31,13.00
2017,05,04,01,32,13.10
2017,05,04,01,33,13.10
2017,05,04,01,34,13.10
2017,05,04,01,35,13.10
2017,05,04,01,36,13.10
2017,05,04,01,37,13.10
2017,05,04,01,38,13.10
2017,05,04,01,39,13.10
2017,05,04,01,40,13.10
2017,05,04,01,41,13.10
2017,05,04,01,42,13.10
2017,05,04,01,43,13.10
2017,05,04,01,44,13.10
2017,05,04,01,45,13.10
2017,05,04,01,46,13.10
2017,05,04,01,47,13.10
2017,05,04,01,48,13.10
2017,05,04,01,49,13.10
2017,05,04,01,50,13.10
2017,05,04,01,51,13.10
2017,05,04,01,52,13.10
2017,05,04,01,53,13.10
2017,05,04,01,54,13.10
2017,05,04,01,55,13.10
2017,05,04,01,56,13.10
2017,05,04,01,57,13.10
2017,05,04,01,58,13.10
2017,05,04,01,59,13.10
2017,05,04,02,00,13.10
2017,05,04,02,01,13.10
2017,05,04,02,02,13.10
2017,05,04,02,03,13.10
2017,05,04,02,04,13.10
2017,05,04,02,05,13.10
2017,05,04,02,06,13.10
2017,05,04,02,07,13.10
2017,05,04,02,08,13.10
2017,05,04,02,09,13.10
2017,05,04,02,10,13.10
2017,05,04,02,11,13.10
2017,05,04,02,12,13.10
2017,05,04,02,13,13.10
2017,05,04,02,14,13.00
2017,05,04,02,15,13.00
2017,05,04,02,16,13.00
2017,05,04,02,17,13.00
2017,05,04,02,18,13.00
2017,05,04,02,19,12.90
2017,05,04,02,20,12.90
2017,05,04,02,21,12.90
2017,05,04,02,22,12.90
2017,05,04,02,23,12.90
2017,05,04,02,24,12.90
2017,05,04,02,25,12.80
2017,05,04,02,26,12.80
2017,05,04,02,27,12.80
2017,05,04,02,28,12.80
2017,05,04,02,29,12.80
2017,05,04,02,30,12.80
2017,05,04,02,31,12.80
2017,05,04,02,32,12.80
2017,05,04,02,33,12.70
2017,05,04,02,34,12.70
2017,05,04,02,35,12.70
2017,05,04,02,36,12.70
2017,05,04,02,37,12.70
2017,05,04,02,38,12.70
2017,05,04,02,39,12.70
2017,05,04,02,40,12.60
2017,05,04,02,41,12.60
2017,05,04,02,42,12.60
2017,05,04,02,43,12.60
2017,05,04,02,44,12.60
2017,05,04,02,45,12.60
2017,05,04,02,46,12.50
2017,05,04,02,47,12.50
2017,05,04,02,48,12.50
2017,05,04,02,49,12.50
2017,05,04,02,50,12.40
2017,05,04,02,51,12.40
2017,05,04,02,52,12.40
2017,05,04,02,53,12.40
2017,05,04,02,54,12.40
2017,05,04,02,55,12.40
2017,05,04,02,56,12.40
2017,05,04,02,57,12.40
2017,05,04,02,58,12.40
2017,05,04,02,59,12.40
2017,05,04,03,00,12.30
2017,05,04,03,01,12.30
2017,05,04,03,02,12.30
2017,05,04,03,03,12.30
2017,05,04,03,04,12.30
2017,05,04,03,05,12.30
2017,05,04,03,06,12.30
2017,05,04,03,07,12.30
2017,05,04,03,08,12.30
2017,05,04,03,09,12.30
2017,05,04,03,10,12.30
2017,05,04,03,11,12.30
2017,05,04,03,12,12.30
2017,05,04,03,13,12.30
2017,05,04,03,14,12.30
2017,05,04,03,15,12.30
2017,05,04,03,16,12.30
2017,05,04,03,17,12.30
2017,05,04,03,18,12.30
2017,05,04,03,19,12.30
2017,05,04,03,20,12.30
2017,05,04,03,21,12.30
2017,05,04,03,22,12.30
2017,05,04,03,23,12.30
2017,05,04,03,24,12.30
2017,05,04,03,25,12.30
2017,05,04,03,26,12.30
2017,05,04,03,27,12.30
2017,05,04,03,28,12.30
2017,05,04,03,29,12.30
2017,05,04,03,30,12.30
2017,05,04,03,31,12.30
2017,05,04,03,32,12.20
2017,05,04,03,33,12.20
2017,05,04,03,34,12.20
2017,05,04,03,35,12.20
2017,05,04,03,36,12.20
2017,05,04,03,37,12.20
2017,05,04,03,38,12.20
2017,05,04,03,39,12.20
2017,05,04,03,40,12.20
2017,05,04,03,41,12.20
2017,05,04,03,42,12.10
2017,05,04,03,43,12.10
2017,05,04,03,44,12.10
2017,05,04,03,45,12.20
2017,05,04,03,46,12.20
2017,05,04,03,47,12.20
2017,05,04,03,48,12.20
2017,05,04,03,49,12.20
2017,05,04,03,50,12.20
2017,05,04,03,51,12.20
2017,05,04,03,52,12.20
2017,05,04,03,53,12.20
2017,05,04,03,54,12.20
2017,05,04,03,55,12.20
2017,05,04,03,56,12.20
2017,05,04,03,57,12.20
2017,05,04,03,58,12.20
2017,05,04,03,59,12.10
2017,05,04,04,00,12.10
2017,05,04,04,01,12.20
2017,05,04,04,02,12.20
2017,05,04,04,03,12.20
2017,05,04,04,04,12.20
2017,05,04,04,05,12.20
2017,05,04,04,06,12.20
2017,05,04,04,07,12.20
2017,05,04,04,08,12.20
2017,05,04,04,09,12.20
2017,05,04,04,10,12.20
2017,05,04,04,11,12.20
2017,05,04,04,12,12.30
2017,05,04,04,13,12.30
2017,05,04,04,14,12.30
2017,05,04,04,15,12.30
2017,05,04,04,16,12.30
2017,05,04,04,17,12.30
2017,05,04,04,18,12.30
2017,05,04,04,19,12.30
2017,05,04,04,20,12.30
2017,05,04,04,21,12.30
2017,05,04,04,22,12.30
2017,05,04,04,23,12.30
2017,05,04,04,24,12.30
2017,05,04,04,25,12.30
2017,05,04,04,26,12.30
2017,05,04,04,27,12.30
2017,05,04,04,28,12.30
2017,05,04,04,29,12.30
2017,05,04,04,30,12.30
2017,05,04,04,31,12.30
2017,05,04,04,32,12.30
2017,05,04,04,33,12.30
2017,05,04,04,34,12.30
2017,05,04,04,35,12.30
2017,05,04,04,36,12.30
2017,05,04,04,37,12.30
2017,05,04,04,38,12.30
2017,05,04,04,39,12.30
2017,05,04,04,40,12.30
2017,05,04,04,41,12.30
2017,05,04,04,42,12.30
2017,05,04,04,43,12.30
2017,05,04,04,44,12.30
2017,05,04,04,45,12.30
2017,05,04,04,46,12.30
2017,05,04,04,47,12.30
2017,05,04,04,48,12.40
2017,05,04,04,49,12.40
2017,05,04,04,50,12.40
2017,05,04,04,51,12.40
2017,05,04,04,52,12.40
2017,05,04,04,53,12.40
2017,05,04,04,54,12.40
2017,05,04,04,55,12.40
2017,05,04,04,56,12.40
2017,05,04,04,57,12.40
2017,05,04,04,58,12.40
2017,05,04,04,59,12.40
2017,05,04,05,00,12.40
2017,05,04,05,01,12.40
2017,05,04,05,02,12.40
2017,05,04,05,03,12.40
2017,05,04,05,04,12.40
2017,05,04,05,05,12.40
2017,05,04,05,06,12.40
2017,05,04,05,07,12.40
2017,05,04,05,08,12.40
2017,05,04,05,09,12.40
2017,05,04,05,10,12.40
2017,05,04,05,11,12.40
2017,05,04,05,12,12.40
2017,05,04,05,13,12.40
2017,05,04,05,14,12.40
2017,05,04,05,15,12.40
2017,05,04,05,16,12.40
2017,05,04,05,17,12.40
2017,05,04,05,18,12.40
2017,05,04,05,19,12.40
2017,05,04,05,20,12.40
2017,05,04,05,21,12.40
2017,05,04,05,22,12.40
2017,05,04,05,23,12.40
2017,05,04,05,24,12.40
2017,05,04,05,25,12.50
2017,05,04,05,26,12.50
2017,05,04,05,27,12.50
2017,05,04,05,28,12.50
2017,05,04,05,29,12.40
2017,05,04,05,30,12.40
2017,05,04,05,31,12.40
2017,05,04,05,32,12.40
2017,05,04,05,33,12.40
2017,05,04,05,34,12.40
2017,05,04,05,35,12.40
2017,05,04,05,36,12.40
2017,05,04,05,37,12.40
2017,05,04,05,38,12.40
2017,05,04,05,39,12.40
2017,05,04,05,40,12.30
2017,05,04,05,41,12.30
2017,05,04,05,42,12.30
2017,05,04,05,43,12.30
2017,05,04,05,44,12.30
2017,05,04,05,45,12.30
2017,05,04,05,46,12.30
2017,05,04,05,47,12.30
2017,05,04,05,48,12.30
2017,05,04,05,49,12.20
2017,05,04,05,50,12.20
2017,05,04,05,51,12.20
2017,05,04,05,52,12.20
2017,05,04,05,53,12.20
2017,05,04,05,54,12.20
2017,05,04,05,55,12.20
2017,05,04,05,56,12.20
2017,05,04,05,57,12.20
2017,05,04,05,58,12.20
2017,05,04,05,59,12.20
2017,05,04,06,00,12.20
2017,05,04,06,01,12.20
2017,05,04,06,02,12.20
2017,05,04,06,03,12.10
2017,05,04,06,04,12.10
2017,05,04,06,05,12.10
2017,05,04,06,06,12.10
2017,05,04,06,07,12.10
2017,05,04,06,08,12.10
2017,05,04,06,09,12.00
2017,05,04,06,10,12.00
2017,05,04,06,11,12.00
2017,05,04,06,12,11.90
2017,05,04,06,13,11.90
2017,05,04,06,14,11.90
2017,05,04,06,15,11.90
2017,05,04,06,16,11.90
2017,05,04,06,17,11.90
2017,05,04,06,18,11.90
2017,05,04,06,19,11.80
2017,05,04,06,20,11.80
2017,05,04,06,21,11.80
2017,05,04,06,22,11.80
2017,05,04,06,23,11.80
2017,05,04,06,24,11.80
2017,05,04,06,25,11.80
2017,05,04,06,26,11.80
2017,05,04,06,27,11.90
2017,05,04,06,28,11.90
2017,05,04,06,29,11.90
2017,05,04,06,30,11.90
2017,05,04,06,31,11.90
2017,05,04,06,32,11.90
2017,05,04,06,33,11.90
2017,05,04,06,34,11.90
2017,05,04,06,35,11.90
2017,05,04,06,36,11.80
2017,05,04,06,37,11.80
2017,05,04,06,38,11.80
2017,05,04,06,39,11.80
2017,05,04,06,40,11.90
2017,05,04,06,41,11.90
2017,05,04,06,42,11.80
2017,05,04,06,43,11.80
2017,05,04,06,44,11.80
2017,05,04,06,45,11.80
2017,05,04,06,46,11.80
2017,05,04,06,47,11.80
2017,05,04,06,48,11.80
2017,05,04,06,49,11.80
2017,05,04,06,50,11.90
2017,05,04,06,51,11.90
2017,05,04,06,52,12.00
2017,05,04,06,53,12.00
2017,05,04,06,54,12.00
2017,05,04,06,55,12.10
2017,05,04,06,56,12.10
2017,05,04,06,57,12.20
2017,05,04,06,58,12.20
2017,05,04,06,59,12.20
2017,05,04,07,00,12.20
2017,05,04,07,01,12.20
2017,05,04,07,02,12.20
2017,05,04,07,03,12.30
2017,05,04,07,04,12.30
2017,05,04,07,05,12.30
2017,05,04,07,06,12.40
2017,05,04,07,07,12.40
2017,05,04,07,08,12.40
2017,05,04,07,09,12.50
2017,05,04,07,10,12.50
2017,05,04,07,11,12.60
2017,05,04,07,12,12.70
2017,05,04,07,13,12.70
2017,05,04,07,14,12.80
2017,05,04,07,15,12.80
2017,05,04,07,16,12.80
2017,05,04,07,17,12.90
2017,05,04,07,18,12.90
2017,05,04,07,19,13.00
2017,05,04,07,20,13.10
2017,05,04,07,21,13.10
2017,05,04,07,22,13.10
2017,05,04,07,23,13.10
2017,05,04,07,24,13.20
2017,05,04,07,25,13.20
2017,05,04,07,26,13.30
2017,05,04,07,27,13.30
2017,05,04,07,28,13.40
2017,05,04,07,29,13.50
2017,05,04,07,30,13.60
2017,05,04,07,31,13.70
2017,05,04,07,32,13.70
2017,05,04,07,33,13.80
2017,05,04,07,34,13.80
2017,05,04,07,35,13.80
2017,05,04,07,36,13.90
2017,05,04,07,37,14.00
2017,05,04,07,38,14.10
2017,05,04,07,39,14.10
2017,05,04,07,40,14.20
2017,05,04,07,41,14.20
2017,05,04,07,42,14.30
2017,05,04,07,43,14.30
2017,05,04,07,44,14.40
2017,05,04,07,45,14.50
2017,05,04,07,46,14.50
2017,05,04,07,47,14.60
2017,05,04,07,48,14.60
2017,05,04,07,49,14.60
2017,05,04,07,50,14.60
2017,05,04,07,51,14.70
2017,05,04,07,52,14.70
2017,05,04,07,53,14.70
2017,05,04,07,54,14.70
2017,05,04,07,55,14.80
2017,05,04,07,56,14.80
2017,05,04,07,57,14.80
2017,05,04,07,58,14.90
2017,05,04,07,59,15.00
2017,05,04,08,00,15.00
2017,05,04,08,01,15.00
2017,05,04,08,02,15.10
2017,05,04,08,03,15.10
2017,05,04,08,04,15.20
2017,05,04,08,05,15.20
2017,05,04,08,06,15.20
2017,05,04,08,07,15.30
2017,05,04,08,08,15.30
2017,05,04,08,09,15.30
2017,05,04,08,10,15.30
2017,05,04,08,11,15.30
2017,05,04,08,12,15.30
2017,05,04,08,13,15.30
2017,05,04,08,14,15.30
2017,05,04,08,15,15.30
2017,05,04,08,16,15.40
2017,05,04,08,17,15.50
2017,05,04,08,18,15.50
2017,05,04,08,19,15.60
2017,05,04,08,20,15.60
2017,05,04,08,21,15.70
2017,05,04,08,22,15.70
2017,05,04,08,23,15.70
2017,05,04,08,24,15.70
2017,05,04,08,25,15.70
2017,05,04,08,26,15.70
2017,05,04,08,27,15.80
2017,05,04,08,28,15.90
2017,05,04,08,29,15.90
2017,05,04,08,30,16.00
2017,05,04,08,31,16.00
2017,05,04,08,32,16.00
2017,05,04,08,33,16.00
2017,05,04,08,34,16.00
2017,05,04,08,35,16.10
2017,05,04,08,36,16.10
2017,05,04,08,37,16.10
2017,05,04,08,38,16.20
2017,05,04,08,39,16.20
2017,05,04,08,40,16.20
2017,05,04,08,41,16.20
2017,05,04,08,42,16.20
2017,05,04,08,43,16.30
2017,05,04,08,44,16.30
2017,05,04,08,45,16.40
2017,05,04,08,46,16.50
2017,05,04,08,47,16.50
2017,05,04,08,48,16.50
2017,05,04,08,49,16.40
2017,05,04,08,50,16.40
2017,05,04,08,51,16.40
2017,05,04,08,52,16.40
2017,05,04,08,53,16.40
2017,05,04,08,54,16.40
2017,05,04,08,55,16.50
2017,05,04,08,56,16.50
2017,05,04,08,57,16.50
2017,05,04,08,58,16.50
2017,05,04,08,59,16.60
2017,05,04,09,00,16.60
2017,05,04,09,01,16.70
2017,05,04,09,02,16.80
2017,05,04,09,03,16.80
2017,05,04,09,04,16.90
2017,05,04,09,05,16.90
2017,05,04,09,06,16.90
2017,05,04,09,07,16.90
2017,05,04,09,08,17.00
2017,05,04,09,09,17.10
2017,05,04,09,10,17.20
2017,05,04,09,11,17.30
2017,05,04,09,12,17.30
2017,05,04,09,13,17.40
2017,05,04,09,14,17.40
2017,05,04,09,15,17.50
2017,05,04,09,16,17.50
2017,05,04,09,17,17.50
2017,05,04,09,18,17.50
2017,05,04,09,19,17.40
2017,05,04,09,20,17.40
2017,05,04,09,21,17.40
2017,05,04,09,22,17.30
2017,05,04,09,23,17.30
2017,05,04,09,24,17.40
2017,05,04,09,25,17.50
2017,05,04,09,26,17.50
2017,05,04,09,27,17.60
2017,05,04,09,28,17.60
2017,05,04,09,29,17.60
2017,05,04,09,30,17.50
2017,05,04,09,31,17.40
2017,05,04,09,32,17.40
2017,05,04,09,33,17.30
2017,05,04,09,34,17.30
2017,05,04,09,35,17.40
2017,05,04,09,36,17.50
2017,05,04,09,37,17.60
2017,05,04,09,38,17.70
2017,05,04,09,39,17.70
2017,05,04,09,40,17.80
2017,05,04,09,41,17.80
2017,05,04,09,42,17.70
2017,05,04,09,43,17.70
2017,05,04,09,44,17.70
2017,05,04,09,45,17.70
2017,05,04,09,46,17.80
2017,05,04,09,47,17.90
2017,05,04,09,48,18.00
2017,05,04,09,49,18.00
2017,05,04,09,50,18.10
2017,05,04,09,51,18.20
2017,05,04,09,52,18.30
2017,05,04,09,53,18.30
2017,05,04,09,54,18.30
2017,05,04,09,55,18.30
2017,05,04,09,56,18.30
2017,05,04,09,57,18.30
2017,05,04,09,58,18.30
2017,05,04,09,59,18.40
2017,05,04,10,00,18.40
2017,05,04,10,01,18.40
2017,05,04,10,02,18.40
2017,05,04,10,03,18.40
2017,05,04,10,04,18.40
2017,05,04,10,05,18.40
2017,05,04,10,06,18.30
2017,05,04,10,07,18.30
2017,05,04,10,08,18.40
2017,05,04,10,09,18.40
2017,05,04,10,10,18.50
2017,05,04,10,11,18.50
2017,05,04,10,12,18.60
2017,05,04,10,13,18.60
2017,05,04,10,14,18.70
2017,05,04,10,15,18.80
2017,05,04,10,16,18.80
2017,05,04,10,17,18.80
2017,05,04,10,18,18.80
2017,05,04,10,19,18.80
2017,05,04,10,20,18.80
2017,05,04,10,21,18.80
2017,05,04,10,22,18.70
2017,05,04,10,23,18.70
2017,05,04,10,24,18.80
2017,05,04,10,25,18.80
2017,05,04,10,26,18.90
2017,05,04,10,27,18.90
2017,05,04,10,28,19.00
2017,05,04,10,29,19.00
2017,05,04,10,30,19.00
2017,05,04,10,31,19.00
2017,05,04,10,32,18.80
2017,05,04,10,33,18.70
2017,05,04,10,34,18.50
2017,05,04,10,35,18.40
2017,05,04,10,36,18.30
2017,05,04,10,37,18.30
2017,05,04,10,38,18.30
2017,05,04,10,39,18.30
2017,05,04,10,40,18.30
2017,05,04,10,41,18.30
2017,05,04,10,42,18.30
2017,05,04,10,43,18.30
2017,05,04,10,44,18.20
2017,05,04,10,45,18.10
2017,05,04,10,46,18.00
2017,05,04,10,47,17.90
2017,05,04,10,48,17.90
2017,05,04,10,49,17.90
2017,05,04,10,50,17.90
2017,05,04,10,51,17.90
2017,05,04,10,52,17.90
2017,05,04,10,53,17.80
2017,05,04,10,54,17.80
2017,05,04,10,55,17.80
2017,05,04,10,56,17.80
2017,05,04,10,57,17.80
2017,05,04,10,58,17.80
2017,05,04,10,59,17.70
2017,05,04,11,00,17.80
2017,05,04,11,01,17.80
2017,05,04,11,02,17.80
2017,05,04,11,03,17.80
2017,05,04,11,04,17.80
2017,05,04,11,05,17.80
2017,05,04,11,06,17.80
2017,05,04,11,07,17.80
2017,05,04,11,08,17.80
2017,05,04,11,09,17.90
2017,05,04,11,10,18.00
2017,05,04,11,11,17.90
2017,05,04,11,12,17.90
2017,05,04,11,13,18.00
2017,05,04,11,14,18.10
2017,05,04,11,15,18.10
2017,05,04,11,16,18.10
2017,05,04,11,17,18.20
2017,05,04,11,18,18.20
2017,05,04,11,19,18.30
2017,05,04,11,20,18.30
2017,05,04,11,21,18.30
2017,05,04,11,22,18.30
2017,05,04,11,23,18.30
2017,05,04,11,24,18.40
2017,05,04,11,25,18.40
2017,05,04,11,26,18.50
2017,05,04,11,27,18.60
2017,05,04,11,28,18.60
2017,05,04,11,29,18.70
2017,05,04,11,30,18.70
2017,05,04,11,31,18.70
2017,05,04,11,32,18.70
2017,05,04,11,33,18.80
2017,05,04,11,34,18.80
2017,05,04,11,35,18.90
2017,05,04,11,36,19.00
2017,05,04,11,37,19.10
2017,05,04,11,38,19.10
2017,05,04,11,39,19.00
2017,05,04,11,40,19.00
2017,05,04,11,41,18.90
2017,05,04,11,42,18.90
2017,05,04,11,43,18.90
2017,05,04,11,44,18.90
2017,05,04,11,45,18.90
2017,05,04,11,46,18.90
2017,05,04,11,47,19.00
2017,05,04,11,48,19.00
2017,05,04,11,49,19.00
2017,05,04,11,50,19.00
2017,05,04,11,51,19.00
2017,05,04,11,52,19.00
2017,05,04,11,53,18.90
2017,05,04,11,54,18.90
2017,05,04,11,55,18.90
2017,05,04,11,56,19.00
2017,05,04,11,57,19.00
2017,05,04,11,58,19.00
2017,05,04,11,59,19.00
2017,05,04,12,00,18.90
2017,05,04,12,01,18.90
2017,05,04,12,02,18.90
2017,05,04,12,03,18.80
2017,05,04,12,04,18.80
2017,05,04,12,05,18.80
2017,05,04,12,06,18.80
2017,05,04,12,07,18.80
2017,05,04,12,08,18.80
2017,05,04,12,09,18.80
2017,05,04,12,10,18.80
2017,05,04,12,11,18.80
2017,05,04,12,12,18.80
2017,05,04,12,13,18.80
2017,05,04,12,14,18.80
2017,05,04,12,15,18.90
2017,05,04,12,16,18.90
2017,05,04,12,17,19.00
2017,05,04,12,18,19.10
2017,05,04,12,19,19.20
2017,05,04,12,20,19.30
2017,05,04,12,21,19.40
2017,05,04,12,22,19.40
2017,05,04,12,23,19.40
2017,05,04,12,24,19.30
2017,05,04,12,25,19.30
2017,05,04,12,26,19.20
2017,05,04,12,27,19.20
2017,05,04,12,28,19.30
2017,05,04,12,29,19.30
2017,05,04,12,30,19.40
2017,05,04,12,31,19.50
2017,05,04,12,32,19.50
2017,05,04,12,33,19.50
2017,05,04,12,34,19.50
2017,05,04,12,35,19.50
2017,05,04,12,36,19.50
2017,05,04,12,37,19.60
2017,05,04,12,38,19.60
2017,05,04,12,39,19.60
2017,05,04,12,40,19.60
2017,05,04,12,41,19.60
2017,05,04,12,42,19.70
2017,05,04,12,43,19.80
2017,05,04,12,44,19.90
2017,05,04,12,45,20.00
2017,05,04,12,46,20.10
2017,05,04,12,47,20.20
2017,05,04,12,48,20.20
2017,05,04,12,49,20.20
2017,05,04,12,50,20.20
2017,05,04,12,51,20.30
2017,05,04,12,52,20.30
2017,05,04,12,53,20.30
2017,05,04,12,54,20.40
2017,05,04,12,55,20.40
2017,05,04,12,56,20.40
2017,05,04,12,57,20.30
2017,05,04,12,58,20.40
2017,05,04,12,59,20.30
2017,05,04,13,00,20.20
2017,05,04,13,01,20.20
2017,05,04,13,02,20.10
2017,05,04,13,03,20.00
2017,05,04,13,04,20.00
2017,05,04,13,05,19.90
2017,05,04,13,06,19.90
2017,05,04,13,07,19.80
2017,05,04,13,08,19.80
2017,05,04,13,09,19.80
2017,05,04,13,10,19.80
2017,05,04,13,11,19.80
2017,05,04,13,12,19.80
2017,05,04,13,13,19.80
2017,05,04,13,14,19.80
2017,05,04,13,15,19.80
2017,05,04,13,16,19.80
2017,05,04,13,17,19.70
2017,05,04,13,18,19.70
2017,05,04,13,19,19.70
2017,05,04,13,20,19.70
2017,05,04,13,21,19.70
2017,05,04,13,22,19.70
2017,05,04,13,23,19.80
2017,05,04,13,24,19.80
2017,05,04,13,25,19.80
2017,05,04,13,26,19.90
2017,05,04,13,27,19.90
2017,05,04,13,28,19.90
2017,05,04,13,29,19.90
2017,05,04,13,30,20.00
2017,05,04,13,31,20.00
2017,05,04,13,32,20.10
2017,05,04,13,33,20.20
2017,05,04,13,34,20.20
2017,05,04,13,35,20.30
2017,05,04,13,36,20.30
2017,05,04,13,37,20.30
2017,05,04,13,38,20.30
2017,05,04,13,39,20.30
2017,05,04,13,40,20.30
2017,05,04,13,41,20.20
2017,05,04,13,42,20.10
2017,05,04,13,43,20.10
2017,05,04,13,44,20.10
2017,05,04,13,45,20.10
2017,05,04,13,46,20.10
2017,05,04,13,47,20.00
2017,05,04,13,48,20.00
2017,05,04,13,49,20.00
2017,05,04,13,50,20.00
2017,05,04,13,51,19.90
2017,05,04,13,52,19.90
2017,05,04,13,53,19.80
2017,05,04,13,54,19.80
2017,05,04,13,55,19.80
2017,05,04,13,56,19.80
2017,05,04,13,57,19.80
2017,05,04,13,58,19.90
2017,05,04,13,59,19.90
2017,05,04,14,00,19.90
2017,05,04,14,01,19.90
2017,05,04,14,02,19.90
2017,05,04,14,03,19.90
2017,05,04,14,04,19.90
2017,05,04,14,05,19.90
2017,05,04,14,06,19.90
2017,05,04,14,07,19.90
2017,05,04,14,08,19.90
2017,05,04,14,09,19.90
2017,05,04,14,10,20.00
2017,05,04,14,11,20.00
2017,05,04,14,12,20.00
2017,05,04,14,13,20.10
2017,05,04,14,14,20.10
2017,05,04,14,15,20.10
2017,05,04,14,16,20.10
2017,05,04,14,17,20.10
2017,05,04,14,18,20.10
2017,05,04,14,19,20.10
2017,05,04,14,20,20.10
2017,05,04,14,21,20.10
2017,05,04,14,22,20.20
2017,05,04,14,23,20.30
2017,05,04,14,24,20.40
2017,05,04,14,25,20.30
2017,05,04,14,26,20.30
2017,05,04,14,27,20.20
2017,05,04,14,28,20.20
2017,05,04,14,29,20.10
2017,05,04,14,30,20.10
2017,05,04,14,31,20.20
2017,05,04,14,32,20.20
2017,05,04,14,33,20.30
2017,05,04,14,34,20.30
2017,05,04,14,35,20.30
2017,05,04,14,36,20.30
2017,05,04,14,37,20.20
2017,05,04,14,38,20.20
2017,05,04,14,39,20.20
2017,05,04,14,40,20.30
2017,05,04,14,41,20.30
2017,05,04,14,42,20.40
2017,05,04,14,43,20.50
2017,05,04,14,44,20.50
2017,05,04,14,45,20.60
2017,05,04,14,46,20.60
2017,05,04,14,47,20.70
2017,05,04,14,48,20.70
2017,05,04,14,49,20.70
2017,05,04,14,50,20.70
2017,05,04,14,51,20.70
2017,05,04,14,52,20.70
2017,05,04,14,53,20.70
2017,05,04,14,54,20.70
2017,05,04,14,55,20.70
2017,05,04,14,56,20.70
2017,05,04,14,57,20.80
2017,05,04,14,58,20.80
2017,05,04,14,59,20.90
2017,05,04,15,00,20.90
2017,05,04,15,01,20.90
2017,05,04,15,02,20.90
2017,05,04,15,03,20.90
2017,05,04,15,04,20.80
2017,05,04,15,05,20.80
2017,05,04,15,06,20.90
2017,05,04,15,07,20.90
2017,05,04,15,08,20.90
2017,05,04,15,09,20.90
2017,05,04,15,10,20.90
2017,05,04,15,11,20.90
2017,05,04,15,12,20.90
2017,05,04,15,13,20.90
2017,05,04,15,14,20.90
2017,05,04,15,15,20.90
2017,05,04,15,16,20.90
2017,05,04,15,17,20.90
2017,05,04,15,18,20.90
2017,05,04,15,19,20.90
2017,05,04,15,20,20.90
2017,05,04,15,21,21.00
2017,05,04,15,22,21.10
2017,05,04,15,23,21.10
2017,05,04,15,24,21.20
2017,05,04,15,25,21.20
2017,05,04,15,26,21.30
2017,05,04,15,27,21.20
2017,05,04,15,28,21.20
2017,05,04,15,29,21.20
2017,05,04,15,30,21.20
2017,05,04,15,31,21.20
2017,05,04,15,32,21.20
2017,05,04,15,33,21.30
2017,05,04,15,34,21.30
2017,05,04,15,35,21.30
2017,05,04,15,36,21.30
2017,05,04,15,37,21.30
2017,05,04,15,38,21.30
2017,05,04,15,39,21.30
2017,05,04,15,40,21.30
2017,05,04,15,41,21.30
2017,05,04,15,42,21.40
2017,05,04,15,43,21.40
2017,05,04,15,44,21.40
2017,05,04,15,45,21.50
2017,05,04,15,46,21.50
2017,05,04,15,47,21.60
2017,05,04,15,48,21.70
2017,05,04,15,49,21.80
2017,05,04,15,50,21.90
2017,05,04,15,51,21.90
2017,05,04,15,52,22.00
2017,05,04,15,53,22.00
2017,05,04,15,54,22.10
2017,05,04,15,55,22.00
2017,05,04,15,56,22.10
2017,05,04,15,57,22.10
2017,05,04,15,58,22.10
2017,05,04,15,59,22.10
2017,05,04,16,00,22.10
2017,05,04,16,01,22.10
2017,05,04,16,02,22.10
2017,05,04,16,03,22.10
2017,05,04,16,04,22.10
2017,05,04,16,05,22.00
2017,05,04,16,06,22.00
2017,05,04,16,07,22.00
2017,05,04,16,08,21.90
2017,05,04,16,09,21.90
2017,05,04,16,10,21.90
2017,05,04,16,11,21.90
2017,05,04,16,12,22.00
2017,05,04,16,13,22.10
2017,05,04,16,14,22.10
2017,05,04,16,15,22.20
2017,05,04,16,16,22.30
2017,05,04,16,17,22.30
2017,05,04,16,18,22.30
2017,05,04,16,19,22.30
2017,05,04,16,20,22.30
2017,05,04,16,21,22.30
2017,05,04,16,22,22.30
2017,05,04,16,23,22.20
2017,05,04,16,24,22.20
2017,05,04,16,25,22.20
2017,05,04,16,26,22.20
2017,05,04,16,27,22.20
2017,05,04,16,28,22.10
2017,05,04,16,29,22.10
2017,05,04,16,30,22.10
2017,05,04,16,31,22.10
2017,05,04,16,32,22.20
2017,05,04,16,33,22.20
2017,05,04,16,34,22.20
2017,05,04,16,35,22.20
2017,05,04,16,36,22.20
2017,05,04,16,37,22.20
2017,05,04,16,38,22.20
2017,05,04,16,39,22.20
2017,05,04,16,40,22.20
2017,05,04,16,41,22.20
2017,05,04,16,42,22.20
2017,05,04,16,43,22.30
2017,05,04,16,44,22.20
2017,05,04,16,45,22.20
2017,05,04,16,46,22.20
2017,05,04,16,47,22.10
2017,05,04,16,48,22.10
2017,05,04,16,49,22.10
2017,05,04,16,50,22.00
2017,05,04,16,51,22.00
2017,05,04,16,52,21.90
2017,05,04,16,53,21.90
2017,05,04,16,54,21.90
2017,05,04,16,55,21.80
2017,05,04,16,56,21.80
2017,05,04,16,57,21.70
2017,05,04,16,58,21.60
2017,05,04,16,59,21.60
2017,05,04,17,00,21.60
2017,05,04,17,01,21.50
2017,05,04,17,02,21.50
2017,05,04,17,03,21.50
2017,05,04,17,04,21.50
2017,05,04,17,05,21.50
2017,05,04,17,06,21.50
2017,05,04,17,07,21.40
2017,05,04,17,08,21.40
2017,05,04,17,09,21.40
2017,05,04,17,10,21.40
2017,05,04,17,11,21.40
2017,05,04,17,12,21.30
2017,05,04,17,13,21.30
2017,05,04,17,14,21.20
2017,05,04,17,15,21.10
2017,05,04,17,16,21.00
2017,05,04,17,17,21.00
2017,05,04,17,18,20.90
2017,05,04,17,19,20.80